Time,TemperatureF,DewpointF,PressureIn,WindDirection,WindDirectionDegrees,WindSpeedMPH,WindSpeedGustMPH,Humidity,HourlyPrecipIn,Conditions,Clouds,dailyrainin,SoftwareType,DateUTC
2013-02-13 00:00:00,53.0,-99.9,-100.00,NE,50,11.0,-999.0,-999,-99.99,,,-99.99,,2013-02-13 05:00:00,
2013-02-13 00:42:00,53.0,-99.9,-100.00,NE,50,11.0,-999.0,-999,-99.99,,,-99.99,,2013-02-13 05:42:00,
2013-02-13 00:52:00,53.0,-99.9,-100.00,NE,50,11.0,-999.0,-999,-99.99,,,-99.99,,2013-02-13 05:52:00,
2013-02-13 01:00:00,55.0,-99.9,-100.00,East,80,9.0,-999.0,-999,-99.99,,,-99.99,,2013-02-13 06:00:00,
2013-02-13 01:42:00,55.0,-99.9,-100.00,East,80,9.0,-999.0,-999,-99.99,,,-99.99,,2013-02-13 06:42:00,
2013-02-13 01:52:00,55.0,-99.9,-100.00,East,80,9.0,-999.0,-999,-99.99,,,-99.99,,2013-02-13 06:52:00,
2013-02-13 02:00:00,59.0,-99.9,-100.00,NNW,330,4.0,-999.0,-999,-99.99,,,-99.99,,2013-02-13 07:00:00,
2013-02-13 02:42:00,59.0,-99.9,-100.00,NNW,330,4.0,-999.0,-999,-99.99,,,-99.99,,2013-02-13 07:42:00,
2013-02-13 02:52:00,59.0,-99.9,-100.00,NNW,330,4.0,-999.0,-999,-99.99,,,-99.99,,2013-02-13 07:52:00,
2013-02-13 03:00:00,59.0,-99.9,-100.00,South,170,4.0,-999.0,-999,-99.99,,,-99.99,,2013-02-13 08:00:00,
2013-02-13 03:43:00,59.0,-99.9,-100.00,South,170,4.0,-999.0,-999,-99.99,,,-99.99,,2013-02-13 08:43:00,
2013-02-13 03:52:00,59.0,-99.9,-100.00,South,170,4.0,-999.0,-999,-99.99,,,-99.99,,2013-02-13 08:52:00,
2013-02-13 04:00:00,59.0,-99.9,-100.00,SSW,200,9.0,-999.0,-999,-99.99,,,-99.99,,2013-02-13 09:00:00,
2013-02-13 04:42:00,59.0,-99.9,-100.00,SSW,200,9.0,-999.0,-999,-99.99,,,-99.99,,2013-02-13 09:42:00,
2013-02-13 04:52:00,59.0,-99.9,-100.00,SSW,200,9.0,-999.0,-999,-99.99,,,-99.99,,2013-02-13 09:52:00,
2013-02-13 05:00:00,60.0,-99.9,-100.00,SW,230,13.0,-999.0,-999,-99.99,,,-99.99,,2013-02-13 10:00:00,
2013-02-13 05:42:00,60.0,-99.9,-100.00,SW,230,13.0,-999.0,-999,-99.99,,,-99.99,,2013-02-13 10:42:00,
2013-02-13 05:52:00,60.0,-99.9,-100.00,SW,230,13.0,-999.0,-999,-99.99,,,-99.99,,2013-02-13 10:52:00,
2013-02-13 07:00:00,58.0,-99.9,-100.00,SW,220,11.0,-999.0,-999,-99.99,,,-99.99,,2013-02-13 12:00:00,
2013-02-13 07:32:00,58.0,-99.9,-100.00,SW,220,11.0,-999.0,-999,-99.99,,,-99.99,,2013-02-13 12:32:00,
2013-02-13 07:42:00,58.0,-99.9,-100.00,SW,220,11.0,-999.0,-999,-99.99,,,-99.99,,2013-02-13 12:42:00,
2013-02-13 07:52:00,58.0,-99.9,-100.00,SW,220,11.0,-999.0,-999,-99.99,,,-99.99,,2013-02-13 12:52:00,
2013-02-13 10:00:00,58.0,-99.9,-100.00,SW,220,7.0,-999.0,-999,-99.99,,,-99.99,,2013-02-13 15:00:00,
2013-02-13 10:42:00,58.0,-99.9,-100.00,SW,220,7.0,-999.0,-999,-99.99,,,-99.99,,2013-02-13 15:42:00,
2013-02-13 10:52:00,58.0,-99.9,-100.00,SW,220,7.0,-999.0,-999,-99.99,,,-99.99,,2013-02-13 15:52:00,
2013-02-13 11:00:00,60.0,-99.9,-100.00,SW,220,9.0,-999.0,-999,-99.99,,,-99.99,,2013-02-13 16:00:00,
2013-02-13 11:42:00,60.0,-99.9,-100.00,SW,220,9.0,-999.0,-999,-99.99,,,-99.99,,2013-02-13 16:42:00,
2013-02-13 11:52:00,60.0,-99.9,-100.00,SW,220,9.0,-999.0,-999,-99.99,,,-99.99,,2013-02-13 16:52:00,
2013-02-13 12:00:00,60.0,-99.9,-100.00,SSW,210,13.0,-999.0,-999,-99.99,,,-99.99,,2013-02-13 17:00:00,
2013-02-13 12:42:00,60.0,-99.9,-100.00,SSW,210,13.0,-999.0,-999,-99.99,,,-99.99,,2013-02-13 17:42:00,
2013-02-13 12:52:00,60.0,-99.9,-100.00,SSW,210,13.0,-999.0,-999,-99.99,,,-99.99,,2013-02-13 17:52:00,
2013-02-13 13:00:00,62.0,-99.9,-100.00,SW,220,9.0,-999.0,-999,-99.99,,,-99.99,,2013-02-13 18:00:00,
2013-02-13 13:42:00,62.0,-99.9,-100.00,SW,220,9.0,-999.0,-999,-99.99,,,-99.99,,2013-02-13 18:42:00,
2013-02-13 13:52:00,62.0,-99.9,-100.00,SW,220,9.0,-999.0,-999,-99.99,,,-99.99,,2013-02-13 18:52:00,
2013-02-13 15:00:00,61.0,-99.9,-100.00,SW,220,13.0,-999.0,-999,-99.99,,,-99.99,,2013-02-13 20:00:00,
2013-02-13 15:42:00,61.0,-99.9,-100.00,SW,220,13.0,-999.0,-999,-99.99,,,-99.99,,2013-02-13 20:42:00,
2013-02-13 15:52:00,61.0,-99.9,-100.00,SW,220,13.0,-999.0,-999,-99.99,,,-99.99,,2013-02-13 20:52:00,
2013-02-13 16:00:00,60.0,-99.9,-100.00,WSW,240,11.0,-999.0,-999,-99.99,,,-99.99,,2013-02-13 21:00:00,
2013-02-13 16:43:00,60.0,-99.9,-100.00,WSW,240,11.0,-999.0,-999,-99.99,,,-99.99,,2013-02-13 21:43:00,
2013-02-13 16:52:00,60.0,-99.9,-100.00,WSW,240,11.0,-999.0,-999,-99.99,,,-99.99,,2013-02-13 21:52:00,
2013-02-13 17:00:00,67.0,-99.9,-100.00,WNW,290,22.0,-999.0,-999,-99.99,,,-99.99,,2013-02-13 22:00:00,
2013-02-13 17:42:00,67.0,-99.9,-100.00,WNW,290,22.0,-999.0,-999,-99.99,,,-99.99,,2013-02-13 22:42:00,
2013-02-13 17:52:00,67.0,-99.9,-100.00,WNW,290,22.0,-999.0,-999,-99.99,,,-99.99,,2013-02-13 22:52:00,
2013-02-13 18:00:00,64.0,-99.9,-100.00,WNW,290,20.0,-999.0,-999,-99.99,,,-99.99,,2013-02-13 23:00:00,
2013-02-13 18:42:00,64.0,-99.9,-100.00,WNW,290,20.0,-999.0,-999,-99.99,,,-99.99,,2013-02-13 23:42:00,
2013-02-13 18:53:00,64.0,-99.9,-100.00,WNW,290,20.0,-999.0,-999,-99.99,,,-99.99,,2013-02-13 23:53:00,
2013-02-13 19:00:00,63.0,-99.9,-100.00,WNW,290,18.0,-999.0,-999,-99.99,,,-99.99,,2013-02-14 00:00:00,
2013-02-13 19:43:00,63.0,-99.9,-100.00,WNW,290,18.0,-999.0,-999,-99.99,,,-99.99,,2013-02-14 00:43:00,
2013-02-13 19:52:00,63.0,-99.9,-100.00,WNW,290,18.0,-999.0,-999,-99.99,,,-99.99,,2013-02-14 00:52:00,
2013-02-13 20:00:00,61.0,-99.9,-100.00,West,270,18.0,-999.0,-999,-99.99,,,-99.99,,2013-02-14 01:00:00,
2013-02-13 20:42:00,61.0,-99.9,-100.00,West,270,18.0,-999.0,-999,-99.99,,,-99.99,,2013-02-14 01:42:00,
2013-02-13 20:52:00,61.0,-99.9,-100.00,West,270,18.0,-999.0,-999,-99.99,,,-99.99,,2013-02-14 01:52:00,
2013-02-13 21:00:00,61.0,-99.9,-100.00,West,270,18.0,-999.0,-999,-99.99,,,-99.99,,2013-02-14 02:00:00,
2013-02-13 22:00:00,57.0,-99.9,-100.00,WNW,300,22.0,-999.0,-999,-99.99,,,-99.99,,2013-02-14 03:00:00,
2013-02-13 22:42:00,57.0,-99.9,-100.00,WNW,300,22.0,-999.0,-999,-99.99,,,-99.99,,2013-02-14 03:42:00,
2013-02-13 22:52:00,57.0,-99.9,-100.00,WNW,300,22.0,-999.0,-999,-99.99,,,-99.99,,2013-02-14 03:52:00,
2013-02-13 23:00:00,54.0,-99.9,-100.00,NW,310,16.0,-999.0,-999,-99.99,,,-99.99,,2013-02-14 04:00:00,
2013-02-13 23:42:00,54.0,-99.9,-100.00,NW,310,16.0,-999.0,-999,-99.99,,,-99.99,,2013-02-14 04:42:00,
2013-02-13 23:52:00,54.0,-99.9,-100.00,NW,310,16.0,-999.0,-999,-99.99,,,-99.99,,2013-02-14 04:52:00,